[[{"header":{"parameterUnit":"m.s-1","parameterCategory":1,"la1":30.2991,"la2":30.254,"lo1":-89.0895,"lo2":-89.0444,"dy":0.0017,"dx":0.0017,"nx":28,"ny":28,"refTime":"2023-09-03T03:00:00:Z","depth":0,"parameterNumber":2,"parameterNumberName":"U-component_of_WINDS"},"data":[0,0,0,0,0,0,0,0,0,0,0,0,0,0,0,0,0,0,0,0,0,0,0,0,0,0,0,0,0,0,0,0,0,0,0,0,0,0,0,0,0,0,0,0,0,0,0,0,0,0,0,0,0,0,0,0,0,0,-4.32,-4.3201,0,-4.3295,-4.3296,-4.3297,-4.3253,-4.3251,-4.3249,-4.3246,-4.3349,-4.3354,-4.3358,0,0,0,0,0,0,0,0,0,0,0,0,0,-4.2989,-4.2993,-4.32,-4.3201,-4.3203,-4.3295,-4.3296,-4.3298,-4.3254,-4.3251,-4.3248,-4.3245,-4.3347,-4.3353,-4.3359,0,0,0,0,0,0,0,0,0,0,0,0,0,-4.3082,-4.2994,-4.32,-4.3192,-4.3192,-4.3295,-4.3296,-4.3298,-4.3254,-4.3251,-4.3247,-4.3244,-4.3345,-4.3352,-4.336,-4.3478,0,0,-4.3382,-4.3386,0,0,0,0,0,0,0,0,-4.3077,-4.309,-4.3192,-4.3193,-4.3193,-4.3259,-4.3259,-4.3358,-4.3255,-4.3231,-4.3246,-4.3242,-4.3322,-4.3331,-4.3357,-4.3482,-4.3487,-4.3383,-4.3388,-4.3391,-4.3393,0,0,0,0,0,0,0,-4.3071,-4.3086,-4.3238,-4.3193,-4.3194,-4.3186,-4.3195,-4.3278,-4.3296,-4.3233,-4.323,-4.3241,-4.3322,-4.335,-4.3359,-4.3488,-4.3383,-4.339,-4.3394,-4.3397,-4.372,-4.3724,0,0,0,0,0,0,-4.3063,-4.3081,-4.3235,-4.3241,-4.3125,-4.3193,-4.3203,-4.3241,-4.3295,-4.3299,-4.3244,-4.3239,-4.3339,-4.335,-4.3363,-4.3506,-4.3391,-4.3398,-4.3402,-4.3716,-4.3721,-4.3725,0,0,0,0,0,0,-4.3059,-4.3078,-4.3231,-4.316,-4.3179,-4.32,-4.3244,-4.3245,-4.3273,-4.3303,-4.3307,-4.3269,-4.3337,-4.3352,-4.345,-4.3509,-4.3401,-4.3408,-4.3711,-4.3717,-4.3723,-4.3793,0,0,0,0,0,0,-4.3053,-4.3076,-4.3119,-4.3161,-4.3183,-4.3314,-4.3247,-4.325,-4.3285,-4.3279,-4.3328,-4.3332,-4.3335,-4.3439,-4.3457,-4.3517,-4.3414,-4.3706,-4.3714,-4.3721,-4.3786,-4.3801,-4.3814,0,0,0,0,0,-4.3046,-4.3135,-4.3121,-4.314,-4.3236,-4.3318,-4.333,-4.333,-4.329,-4.3335,-4.3355,-4.3331,-4.35,-4.3449,-4.347,-4.3533,-4.3702,-4.3712,-4.3721,-4.3779,-4.3798,-4.3814,0,0,0,0,0,0,-4.31,-4.314,-4.3125,-4.3231,-4.3271,-4.331,-4.3366,-4.3349,-4.3403,-4.3395,-4.3395,-4.3406,-4.3508,-4.353,-4.3473,-4.3652,-4.3595,-4.3609,-4.3633,-4.3651,-4.3665,-4.3657,-4.342,0,0,0,0,0,-4.3124,-4.3185,-4.3218,-4.3308,-4.3329,-4.3344,-4.338,-4.3376,-4.3419,-4.3436,-4.3463,-4.3507,-4.3571,-4.3612,-4.3672,-4.3789,-4.3801,-4.3843,-4.3857,-4.3869,-4.3881,-4.3948,-4.3968,-4.3756,-4.3756,-4.3755,0,0,-4.3175,-4.3204,-4.3243,-4.332,-4.335,-4.3416,-4.3359,-4.343,-4.3479,-4.3447,-4.3541,-4.3564,-4.3613,-4.3722,-4.3771,-4.3744,-4.3943,-4.3881,-4.389,-4.3895,-4.396,-4.398,-4.3998,-4.3762,-4.3761,-4.376,0,0,-4.33,-4.3328,-4.3407,-4.344,-4.3487,-4.3498,-4.3517,-4.356,-4.3573,-4.3667,-4.3646,-4.3706,-4.3814,-4.3851,-4.3884,-4.4029,-4.401,-4.4049,-4.4123,-4.4189,-4.4205,-4.422,-4.4274,-4.4293,-4.4061,-4.4061,-4.4061,0,-4.3357,-4.3453,-4.345,-4.3524,-4.356,-4.3534,-4.3616,-4.3648,-4.3714,-4.3741,-4.3709,-4.3847,-4.3878,-4.3997,-4.4032,-4.406,-4.4084,-4.4043,-4.4203,-4.4218,-4.4232,-4.4283,-4.4303,-4.4066,-4.4065,-4.4065,-4.4064,0,-4.3522,-4.3589,-4.3648,-4.3711,-4.3754,-4.3831,-4.3843,-4.3888,-4.3882,-4.3897,-4.3996,-4.4033,-4.4102,-4.413,-4.4125,-4.425,-4.4231,-4.4202,-4.4144,-4.4256,-4.4305,-4.4324,-4.4072,-4.4071,-4.4069,-4.4068,0,0,-4.3681,-4.3744,-4.3766,-4.3796,-4.3848,-4.3902,-4.398,-4.4046,-4.4085,-4.4133,-4.42,-4.4295,-4.4268,-4.4306,-4.4306,-4.4364,-4.4479,-4.4327,-4.4329,-4.4355,-4.4622,-4.4644,-4.4667,-4.4467,-4.4471,-4.4474,-4.4618,0,-4.3811,-4.3945,-4.3948,-4.4073,-4.4137,-4.4116,-4.4185,-4.4226,-4.4244,-4.4303,-4.4323,-4.4391,-4.435,-4.4373,-4.4429,-4.4453,-4.4533,-4.4443,-4.4533,-4.4536,-4.452,-4.4691,-4.4714,-4.4848,-4.4637,-4.464,-4.4643,0,-4.3979,-4.4032,-4.4163,-4.421,-4.4237,-4.4298,-4.4361,-4.4417,-4.4466,-4.4475,-4.4519,-4.4511,-4.4595,-4.4537,-4.4654,-4.4593,-4.4631,-4.4649,-4.4654,-4.4662,-4.4595,-4.4705,-4.4891,-4.4911,-4.4672,-4.467,-4.4667,0,-4.4084,-4.4188,-4.428,-4.4306,-4.4363,-4.4407,-4.4433,-4.4478,-4.4519,-4.4575,-4.4602,-4.4668,-4.4704,-4.4757,-4.4769,-4.4725,-4.4888,-4.4829,-4.49,-4.49,-4.4934,-4.4931,-4.5129,-4.4958,-4.4958,-4.4958,-4.4957,0,-4.4228,-4.431,-4.4328,-4.4385,-4.4477,-4.4481,-4.4573,-4.4597,-4.4638,-4.4701,-4.4688,-4.4749,-4.4761,-4.4825,-4.4836,-4.4933,-4.4949,-4.4961,-4.4963,-4.4962,-4.4961,-4.4986,-4.4977,-4.4963,-4.4962,-4.4961,-4.496,0,-4.4359,-4.4375,-4.4474,-4.4521,-4.4535,-4.4601,-4.4642,-4.4698,-4.4715,-4.4796,-4.4816,-4.4844,-4.492,-4.4937,-4.5027,-4.5034,-4.515,-4.5143,-4.5133,-4.5132,-4.5202,-4.5196,-4.5423,-4.5454,-4.5263,-4.5265,-4.5266,0,-4.445,-4.4512,-4.4566,-4.4607,-4.4635,-4.4701,-4.4743,-4.4751,-4.4796,-4.4859,-4.4909,-4.4983,-4.5041,-4.5164,-4.5194,-4.5264,-4.5259,-4.5334,-4.5269,-4.5268,-4.5262,-4.5258,-4.5265,-4.5346,-4.5348,-4.535,-4.5351,0,-4.461,-4.4616,-4.4675,-4.4739,-4.479,-4.4841,-4.4889,-4.4925,-4.4941,-4.4992,-4.5068,-4.5115,-4.5208,-4.5282,-4.5353,-4.5383,-4.5372,-4.5372,-4.5392,-4.5391,-4.5383,-4.539,-4.5167,-4.5366,-4.5364,-4.5363,-4.5362,-4.5362,-4.4724,-4.478,-4.4827,-4.4895,-4.4933,-4.498,-4.5036,-4.5061,-4.5124,-4.5199,-4.5202,-4.5286,-4.5338,-4.5432,-4.5467,-4.5535,-4.5512,-4.5541,-4.5549,-4.5556,-4.5562,-4.5373,-4.5548,-4.5548,-4.5547,-4.5547,-4.5547,0,-4.4885,-4.4915,-4.4977,-4.5046,-4.5101,-4.5084,-4.5139,-4.5187,-4.526,-4.5309,-4.5368,-4.5458,-4.5532,-4.5569,-4.5643,-4.5691,-4.5688,-4.571,-4.5707,-4.5714,-4.5578,-4.5553,-4.5712,-4.5712,-4.5712,-4.5712,-4.5712,-4.5712,-4.4974,-4.5068,-4.508,-4.5194,-4.5224,-4.5305,-4.5338,-4.5383,-4.5422,-4.5523,-4.5583,-4.5607,-4.5653,-4.5731,-4.5799,-4.5808,-4.5837,-4.5862,-4.5869,-4.574,-4.5724,-4.5708,-4.5684,-4.5868,-4.5869,-4.6,-4.6002,-4.6002]},{"header":{"parameterUnit":"m.s-1","parameterCategory":1,"la1":30.2991,"la2":30.254,"lo1":-89.0895,"lo2":-89.0444,"dy":0.0017,"dx":0.0017,"nx":28,"ny":28,"refTime":"2023-09-03T03:00:00:Z","depth":0,"parameterNumber":3,"parameterNumberName":"V-component_of_WINDS"},"data":[0,0,0,0,0,0,0,0,0,0,0,0,0,0,0,0,0,0,0,0,0,0,0,0,0,0,0,0,0,0,0,0,0,0,0,0,0,0,0,0,0,0,0,0,0,0,0,0,0,0,0,0,0,0,0,0,0,0,1.3002,1.3001,0,1.2857,1.2855,1.2853,1.2833,1.2834,1.2835,1.2837,1.268,1.2675,1.2669,0,0,0,0,0,0,0,0,0,0,0,0,0,1.3257,1.3253,1.3003,1.3001,1.2999,1.2857,1.2855,1.2853,1.2832,1.2834,1.2836,1.2837,1.2682,1.2675,1.2669,0,0,0,0,0,0,0,0,0,0,0,0,0,1.3132,1.3251,1.3003,1.2972,1.2968,1.2857,1.2855,1.2852,1.2832,1.2834,1.2836,1.2838,1.2684,1.2676,1.2668,1.2576,0,0,1.2643,1.2639,0,0,0,0,0,0,0,0,1.3139,1.3123,1.2978,1.2974,1.2969,1.2865,1.2887,1.2759,1.2831,1.2883,1.2837,1.2839,1.2739,1.2727,1.2695,1.2569,1.2562,1.2642,1.2637,1.2634,1.2631,0,0,0,0,0,0,0,1.3148,1.3129,1.2945,1.2976,1.297,1.2963,1.2948,1.2863,1.2801,1.2879,1.2877,1.286,1.2737,1.2703,1.2691,1.256,1.2642,1.2635,1.263,1.2627,1.2349,1.2347,0,0,0,0,0,0,1.3163,1.3136,1.2949,1.294,1.3061,1.2957,1.2939,1.2896,1.2802,1.279,1.2859,1.286,1.2715,1.27,1.2685,1.257,1.2634,1.2626,1.2621,1.2352,1.2349,1.2346,0,0,0,0,0,0,1.3169,1.3147,1.2955,1.3038,1.3013,1.295,1.2902,1.2892,1.2858,1.2787,1.2775,1.2835,1.2716,1.2697,1.2603,1.2564,1.2622,1.2615,1.2355,1.2351,1.2348,1.2339,0,0,0,0,0,0,1.3176,1.3149,1.3115,1.3037,1.3009,1.2878,1.2899,1.2888,1.2844,1.2845,1.2762,1.275,1.2717,1.2616,1.2595,1.2554,1.2608,1.2358,1.2353,1.2349,1.2343,1.2336,1.233,0,0,0,0,0,1.3185,1.3117,1.3113,1.3091,1.2965,1.2876,1.2859,1.2824,1.2841,1.2805,1.276,1.2753,1.2573,1.2606,1.2583,1.2539,1.236,1.2354,1.2349,1.2346,1.2337,1.233,0,0,0,0,0,0,1.3189,1.3106,1.3101,1.3006,1.2948,1.2872,1.2826,1.2816,1.275,1.2753,1.271,1.2692,1.26,1.256,1.26,1.2444,1.2468,1.2457,1.2473,1.2464,1.2458,1.2468,1.2602,0,0,0,0,0,1.3179,1.3116,1.3046,1.2969,1.2941,1.2889,1.2848,1.2827,1.2764,1.2738,1.2686,1.2624,1.2553,1.2507,1.2438,1.2338,1.2318,1.2296,1.229,1.2285,1.2275,1.2217,1.2205,1.2328,1.2328,1.2328,0,0,1.3157,1.3104,1.3066,1.2968,1.2921,1.2854,1.2868,1.2796,1.2745,1.2727,1.2635,1.2596,1.2523,1.2426,1.238,1.2389,1.2237,1.2278,1.2274,1.2267,1.221,1.2198,1.2188,1.2324,1.2325,1.2326,0,0,1.3082,1.3037,1.2967,1.292,1.2849,1.2815,1.2799,1.2724,1.2697,1.2606,1.2591,1.2529,1.2408,1.2357,1.2315,1.2222,1.2211,1.2201,1.2165,1.2109,1.2099,1.2091,1.2054,1.2042,1.2192,1.2192,1.2192,0,1.3062,1.2963,1.2932,1.286,1.2817,1.2801,1.2728,1.2683,1.2592,1.2561,1.2575,1.2423,1.2373,1.2262,1.224,1.2208,1.2185,1.2208,1.2104,1.2095,1.2086,1.2051,1.2038,1.2191,1.2191,1.2191,1.2191,0,1.2941,1.2872,1.2824,1.2739,1.269,1.2619,1.2575,1.2529,1.2512,1.2476,1.2382,1.2323,1.2241,1.2214,1.2196,1.21,1.2108,1.2113,1.2135,1.2074,1.204,1.2026,1.2189,1.219,1.219,1.219,0,0,1.2861,1.2762,1.2744,1.2705,1.2626,1.2571,1.2499,1.2421,1.2381,1.232,1.2255,1.2155,1.216,1.2112,1.2088,1.204,1.1967,1.2051,1.2048,1.2034,1.1854,1.1848,1.1833,1.1961,1.1959,1.1957,1.1859,0,1.2774,1.2646,1.2616,1.2505,1.244,1.2425,1.2361,1.2304,1.2269,1.2207,1.2168,1.2096,1.2109,1.208,1.2032,1.1986,1.1929,1.1993,1.1897,1.1894,1.1912,1.1816,1.1809,1.172,1.1846,1.1844,1.1842,0,1.2655,1.2593,1.2476,1.2406,1.2378,1.2321,1.2247,1.2189,1.2124,1.2102,1.205,1.2031,1.1953,1.1982,1.1871,1.1915,1.1875,1.1847,1.1842,1.1829,1.1862,1.1796,1.1691,1.1676,1.1822,1.1823,1.1825,0,1.2605,1.2492,1.2407,1.2375,1.2291,1.2252,1.2215,1.2153,1.2108,1.2043,1.2012,1.1939,1.1897,1.1839,1.18,1.1826,1.1692,1.1718,1.1668,1.1669,1.1637,1.1639,1.152,1.1617,1.1618,1.1618,1.1618,0,1.2509,1.2437,1.2383,1.2331,1.2249,1.2216,1.2135,1.2098,1.2043,1.1981,1.1963,1.1905,1.1859,1.1794,1.1763,1.1674,1.1657,1.1634,1.1626,1.1633,1.1636,1.1603,1.1607,1.1614,1.1615,1.1616,1.1616,0,1.2437,1.2399,1.2304,1.2235,1.2215,1.2158,1.2096,1.2043,1.201,1.1931,1.1911,1.1856,1.1778,1.1735,1.1637,1.1616,1.1516,1.1513,1.1538,1.1534,1.1485,1.1488,1.1337,1.1315,1.1431,1.143,1.1429,0,1.2376,1.2321,1.2246,1.2204,1.2167,1.21,1.2055,1.202,1.1973,1.1896,1.1851,1.1774,1.1709,1.1585,1.1534,1.1459,1.1451,1.1404,1.1439,1.1448,1.1446,1.1449,1.1441,1.1396,1.1395,1.1394,1.1394,0,1.2272,1.2256,1.2193,1.2123,1.207,1.2012,1.1955,1.1921,1.1876,1.1824,1.1746,1.1696,1.1597,1.1518,1.1439,1.1398,1.1387,1.1384,1.1367,1.1372,1.1388,1.1375,1.1517,1.1386,1.1387,1.1387,1.1388,1.1388,1.2201,1.2151,1.209,1.202,1.1974,1.1921,1.1868,1.1828,1.1763,1.1681,1.1664,1.158,1.1516,1.1409,1.1366,1.1299,1.1307,1.1284,1.1278,1.1272,1.1268,1.1402,1.1284,1.1285,1.1285,1.1285,1.1285,0,1.2093,1.2054,1.199,1.1912,1.1856,1.1855,1.1791,1.1744,1.1671,1.1614,1.1551,1.146,1.1385,1.1329,1.1251,1.1207,1.12,1.1188,1.1188,1.1179,1.1267,1.1287,1.1195,1.1195,1.1195,1.1195,1.1195,1.1195,1.203,1.1944,1.1921,1.1812,1.1773,1.1692,1.1656,1.1606,1.156,1.146,1.1398,1.1364,1.1306,1.1224,1.1153,1.1139,1.1109,1.1097,1.1081,1.1163,1.1173,1.1182,1.12,1.1092,1.1091,1.0998,1.0997,1.0996]}]]